Location: Complexul Astronomic Baia Mare
(47.6577°N, 23.5639°E)
Time: 10:35:24
(UTC+03:00)

ISS - Pass Details

Date: 21 May 2017
Orbit: 401 x 407 km, 51.6° (Epoch: 20 September)

Event Time Altitude Azimuth Distance (km) Brightness Sun altitude
Exits shadow 01:03:31 25° 67° (ENE) 893 -2.0 -22.0°
Drops below altitude 10° 01:05:01 10° 67° (ENE) 1,488 -0.8 -22.1°
Enters shadow 02:13:22 -45° 260° (W) 9,567 3.1 -21.2°
